TET-1 (38710 NORAD) Tracking and Keplerian Element Data

This shows tracking and keplerian element data for the satellite.

Feedback or suggestion? Click here.




ElementValue
Catalog38710
NameTET-1
Epoch Orbit35459
Epoch Day322.92448445
Epoch Year2018
RAAN308.0802
Inclination97.6067
Eccentricity0.0003089
Argument of Perigee105.8282
Mean Anonmoly254.3309
Mean Motion15.48457244
Decay Rate2.967E-05
L11 38710U 12039D 18322.92448445 .00002967 00000-0 57763-4 0 9996
L22 38710 97.6067 308.0802 0003089 105.8282 254.3309 15.48457244354599

Live tracking and technical data element details for TET-1 (NORAD 38710). TET-1 can be tracked NOW for your location showing map with azimuth and elevation plus other details from your city location.

Track the satellite on the map from your city or location and see movement details for azimuth, elevation, latitude, longitude, range, height, and movement on the map or in text.







IsCatalogInMostPopularTable: catalog: 38710, numindb: 62
Update: records affected: 1



GetName: 38710 TET-1

Hit Count: updated at: Mon, 19 Nov 2018 23:57:21 GMT